 140.07306 , 35.69083 , 16 ,,,,,,
 8760 ,,,,,,,,
2004,4,1,1,6,1.4,283.85,9999,0
2004,4,1,2,7,.6,283.35,9999,0
2004,4,1,3,16,1.7,283.15,9999,0
2004,4,1,4,16,1.4,282.15,9999,0
2004,4,1,5,16,1.8,281.85,9999,0
2004,4,1,6,1,1.8,282.05,9999,1
2004,4,1,7,14,1.5,282.45,9999,28
2004,4,1,8,15,2.6,283.35,9999,114
2004,4,1,9,16,3.9,285.05,9999,193
2004,4,1,10,1,2.3,286.65,9999,253
2004,4,1,11,15,2.3,288.45,9999,293
2004,4,1,12,12,1.8,289.35,9999,303
2004,4,1,13,12,1.6,289.85,9999,302
2004,4,1,14,10,2.4,290.75,9999,250
2004,4,1,15,10,2.6,290.75,9999,220
2004,4,1,16,7,4.9,290.65,9999,146
2004,4,1,17,7,4.7,289.05,9999,75
2004,4,1,18,7,4.8,287.25,9999,16
2004,4,1,19,7,3.4,286.25,9999,0
2004,4,1,20,6,3.1,286.65,9999,0
2004,4,1,21,6,3.3,287.15,9999,0
2004,4,1,22,7,3.8,287.85,9999,0
2004,4,1,23,6,2.7,287.95,9999,0
2004,4,1,24,6,4,288.35,9999,0
2004,4,2,1,6,3.8,287.45,9999,0
2004,4,2,2,6,4.2,287.45,9999,0
2004,4,2,3,9,3.3,287.55,9999,0
2004,4,2,4,11,3.9,286.35,9999,0
2004,4,2,5,12,.6,286.05,9999,0
2004,4,2,6,8,1,286.05,9999,0
2004,4,2,7,11,1.8,285.95,9999,3
2004,4,2,8,9,1.6,286.15,9999,11
2004,4,2,9,9,3.5,287.35,9999,33
2004,4,2,10,10,5.1,287.85,9999,41
2004,4,2,11,9,3.1,287.45,9999,12
2004,4,2,12,9,3.6,288.55,9999,12
2004,4,2,13,10,6.7,290.35,9999,42
2004,4,2,14,10,6.3,292.35,9999,126
2004,4,2,15,10,6.8,292.95,9999,197
2004,4,2,16,11,7.9,292.85,9999,167
2004,4,2,17,11,4.1,291.05,9999,85
2004,4,2,18,12,3.3,290.25,9999,19
2004,4,2,19,11,2.5,289.65,9999,0
2004,4,2,20,14,2.4,290.35,9999,0
2004,4,2,21,14,3.4,289.65,9999,0
2004,4,2,22,14,2.4,287.35,9999,0
2004,4,2,23,15,1.9,286.25,9999,0
2004,4,2,24,15,2.1,286.15,9999,0
2004,4,3,1,15,1.6,284.85,9999,0
2004,4,3,2,16,1.7,284.55,9999,0
2004,4,3,3,16,1.5,282.75,9999,0
2004,4,3,4,3,1.3,282.35,9999,0
2004,4,3,5,1,1.5,281.45,9999,0
2004,4,3,6,2,1.4,281.75,9999,5
2004,4,3,7,15,1,284.75,9999,55
2004,4,3,8,14,1.8,287.25,9999,130
2004,4,3,9,14,3.3,288.65,9999,203
2004,4,3,10,13,.7,288.95,9999,218
2004,4,3,11,8,3.4,291.65,9999,288
2004,4,3,12,9,2.6,293.15,9999,307
2004,4,3,13,11,4,291.75,9999,295
2004,4,3,14,10,2.8,291.75,9999,240
2004,4,3,15,10,2.9,291.65,9999,210
2004,4,3,16,9,3.3,291.75,9999,127
2004,4,3,17,6,3.2,289.85,9999,70
2004,4,3,18,6,3.3,288.25,9999,14
2004,4,3,19,4,3,287.45,9999,0
2004,4,3,20,3,5.1,285.45,9999,0
2004,4,3,21,3,5.9,284.35,9999,0
2004,4,3,22,3,6.4,283.75,9999,0
2004,4,3,23,3,5.1,282.75,9999,0
2004,4,3,24,2,3.5,282.45,9999,0
2004,4,4,1,3,3.6,282.45,9999,0
2004,4,4,2,3,3.6,281.95,9999,0
2004,4,4,3,2,2.3,281.95,9999,0
2004,4,4,4,3,4.3,281.85,9999,0
2004,4,4,5,4,4.4,281.55,9999,0
2004,4,4,6,4,4.5,281.15,9999,1
2004,4,4,7,3,3.2,281.15,9999,7
2004,4,4,8,4,4.3,281.45,9999,19
2004,4,4,9,3,3.4,281.35,9999,11
2004,4,4,10,3,3.7,281.45,9999,19
2004,4,4,11,2,3.8,280.75,9999,20
2004,4,4,12,2,3.6,280.65,9999,24
2004,4,4,13,3,4.1,280.45,9999,20
2004,4,4,14,3,4.8,279.65,9999,31
2004,4,4,15,2,4.7,279.05,9999,13
2004,4,4,16,2,5,278.75,9999,6
2004,4,4,17,2,4.5,278.55,9999,1
2004,4,4,18,2,4.7,277.35,9999,0
2004,4,4,19,2,5.1,276.75,9999,0
2004,4,4,20,1,4.2,276.65,9999,0
2004,4,4,21,1,3.3,275.75,9999,0
2004,4,4,22,16,2.9,275.55,9999,0
2004,4,4,23,1,2.3,275.75,9999,0
2004,4,4,24,16,3.3,275.85,9999,0
2004,4,5,1,16,3.1,275.85,9999,0
2004,4,5,2,16,3.6,276.35,9999,0
2004,4,5,3,16,3.6,276.65,9999,0
2004,4,5,4,16,2.5,276.75,9999,0
2004,4,5,5,16,3.1,277.05,9999,0
2004,4,5,6,16,3,277.25,9999,3
2004,4,5,7,16,3,278.85,9999,41
2004,4,5,8,16,3.5,281.05,9999,138
2004,4,5,9,1,5.1,282.15,9999,209
2004,4,5,10,1,2.5,283.35,9999,216
2004,4,5,11,3,4.3,284.85,9999,297
2004,4,5,12,3,3.1,284.65,9999,321
2004,4,5,13,16,1.3,285.45,9999,319
2004,4,5,14,7,1.4,286.15,9999,285
2004,4,5,15,2,1.6,286.85,9999,233
2004,4,5,16,9,2.9,287.55,9999,165
2004,4,5,17,7,4.5,285.05,9999,87
2004,4,5,18,7,4.4,283.35,9999,21
2004,4,5,19,7,3.3,282.35,9999,0
2004,4,5,20,7,2.2,281.75,9999,0
2004,4,5,21,7,2.1,281.45,9999,0
2004,4,5,22,6,2,281.15,9999,0
2004,4,5,23,7,1.8,280.85,9999,0
2004,4,5,24,7,1.3,280.35,9999,0
2004,4,6,1,9,1.8,279.95,9999,0
2004,4,6,2,8,1.3,280.25,9999,0
2004,4,6,3,9,1.8,279.85,9999,0
2004,4,6,4,8,1.3,279.75,9999,0
2004,4,6,5,15,1.5,279.35,9999,0
2004,4,6,6,0,0,279.45,9999,7
2004,4,6,7,15,1,281.45,9999,58
2004,4,6,8,8,.9,284.25,9999,135
2004,4,6,9,9,3.4,288.45,9999,209
2004,4,6,10,10,3.9,289.15,9999,269
2004,4,6,11,11,5.1,290.25,9999,309
2004,4,6,12,11,5.8,290.95,9999,331
2004,4,6,13,11,5.4,291.65,9999,319
2004,4,6,14,11,5,290.65,9999,262
2004,4,6,15,10,5.5,290.75,9999,222
2004,4,6,16,10,4.8,290.25,9999,142
2004,4,6,17,10,5.2,288.95,9999,60
2004,4,6,18,10,4.4,288.25,9999,16
2004,4,6,19,9,4,287.75,9999,0
2004,4,6,20,10,3.8,287.45,9999,0
2004,4,6,21,10,4,287.25,9999,0
2004,4,6,22,10,4.1,287.15,9999,0
2004,4,6,23,10,4.5,287.15,9999,0
2004,4,6,24,10,3.6,286.95,9999,0
2004,4,7,1,10,3.8,286.95,9999,0
2004,4,7,2,11,3.8,286.65,9999,0
2004,4,7,3,11,3.6,286.75,9999,0
2004,4,7,4,11,2.7,286.55,9999,0
2004,4,7,5,11,2,286.45,9999,0
2004,4,7,6,12,1,285.75,9999,4
2004,4,7,7,14,.9,286.45,9999,29
2004,4,7,8,16,.6,287.95,9999,99
2004,4,7,9,12,1.5,290.25,9999,169
2004,4,7,10,10,2.3,292.05,9999,245
2004,4,7,11,10,2.3,293.15,9999,286
2004,4,7,12,10,4.4,292.35,9999,307
2004,4,7,13,10,3.9,293.35,9999,293
2004,4,7,14,10,4.9,293.55,9999,263
2004,4,7,15,10,4.9,293.55,9999,210
2004,4,7,16,10,5.2,292.75,9999,147
2004,4,7,17,10,5.6,291.25,9999,74
2004,4,7,18,10,5.8,290.05,9999,16
2004,4,7,19,10,5.7,289.45,9999,0
2004,4,7,20,10,6.1,289.45,9999,0
2004,4,7,21,10,4.6,289.65,9999,0
2004,4,7,22,11,7.1,290.15,9999,0
2004,4,7,23,11,7.2,290.25,9999,0
2004,4,7,24,11,5.3,289.95,9999,0
2004,4,8,1,12,4.5,289.65,9999,0
2004,4,8,2,9,1.9,289.35,9999,0
2004,4,8,3,2,3.3,287.45,9999,0
2004,4,8,4,3,7,284.55,9999,0
2004,4,8,5,3,6.2,283.05,9999,0
2004,4,8,6,3,5.7,281.85,9999,0
2004,4,8,7,2,3.7,281.75,9999,1
2004,4,8,8,2,3.8,281.45,9999,8
2004,4,8,9,3,4.3,281.25,9999,23
2004,4,8,10,4,4.8,282.85,9999,120
2004,4,8,11,4,3.6,284.55,9999,257
2004,4,8,12,4,3.3,285.95,9999,272
2004,4,8,13,3,1.9,286.95,9999,328
2004,4,8,14,4,3.7,289.05,9999,299
2004,4,8,15,3,2.5,289.45,9999,245
2004,4,8,16,7,4.2,286.85,9999,178
2004,4,8,17,7,4.8,285.05,9999,98
2004,4,8,18,7,3.3,283.75,9999,21
2004,4,8,19,7,2.3,283.05,9999,0
2004,4,8,20,5,2,282.65,9999,0
2004,4,8,21,5,2.8,282.25,9999,0
2004,4,8,22,5,3.2,282.25,9999,0
2004,4,8,23,5,3.1,282.05,9999,0
2004,4,8,24,5,2.6,282.35,9999,0
2004,4,9,1,5,2.2,282.15,9999,0
2004,4,9,2,5,1.9,281.85,9999,0
2004,4,9,3,4,1.7,281.55,9999,0
2004,4,9,4,4,1.7,280.95,9999,0
2004,4,9,5,1,1.2,280.75,9999,0
2004,4,9,6,1,1.7,281.45,9999,6
2004,4,9,7,1,2.2,282.55,9999,52
2004,4,9,8,2,1.7,284.25,9999,88
2004,4,9,9,15,1.1,286.55,9999,205
2004,4,9,10,13,1.8,288.35,9999,262
2004,4,9,11,11,2.8,291.35,9999,303
2004,4,9,12,10,3.1,291.75,9999,323
2004,4,9,13,10,3.3,292.25,9999,315
2004,4,9,14,11,4.2,292.05,9999,283
2004,4,9,15,11,4.9,291.85,9999,233
2004,4,9,16,11,4.1,291.25,9999,166
2004,4,9,17,11,3.8,290.35,9999,88
2004,4,9,18,10,3.8,289.85,9999,21
2004,4,9,19,10,3.4,289.05,9999,0
2004,4,9,20,10,3,288.75,9999,0
2004,4,9,21,10,2.2,288.05,9999,0
2004,4,9,22,10,2.1,287.45,9999,0
2004,4,9,23,10,1.5,286.55,9999,0
2004,4,9,24,8,.9,285.65,9999,0
2004,4,10,1,11,.7,284.55,9999,0
2004,4,10,2,16,1.1,284.15,9999,0
2004,4,10,3,7,1.4,283.45,9999,0
2004,4,10,4,16,2.2,283.35,9999,0
2004,4,10,5,15,1.8,283.25,9999,0
2004,4,10,6,16,1.4,283.35,9999,8
2004,4,10,7,1,2.4,284.75,9999,59
2004,4,10,8,2,2.2,288.35,9999,142
2004,4,10,9,4,2.6,290.55,9999,215
2004,4,10,10,5,2.3,292.65,9999,273
2004,4,10,11,8,1.6,294.85,9999,311
2004,4,10,12,4,1.6,294.75,9999,326
2004,4,10,13,5,3.7,295.65,9999,312
2004,4,10,14,7,4.5,293.85,9999,281
2004,4,10,15,6,4.9,293.15,9999,237
2004,4,10,16,7,5,292.65,9999,168
2004,4,10,17,7,4.3,291.45,9999,90
2004,4,10,18,8,3.3,290.15,9999,20
2004,4,10,19,8,3,289.55,9999,0
2004,4,10,20,7,2.7,289.25,9999,0
2004,4,10,21,6,1.9,288.35,9999,0
2004,4,10,22,7,2.2,287.75,9999,0
2004,4,10,23,6,2.1,287.25,9999,0
2004,4,10,24,6,1.9,287.05,9999,0
2004,4,11,1,7,1.6,286.45,9999,0
2004,4,11,2,7,1.4,286.25,9999,0
2004,4,11,3,4,1.2,285.35,9999,0
2004,4,11,4,2,.8,285.35,9999,0
2004,4,11,5,4,.9,285.65,9999,0
2004,4,11,6,11,.6,285.35,9999,5
2004,4,11,7,1,1.5,286.95,9999,40
2004,4,11,8,0,0,288.35,9999,81
2004,4,11,9,11,.6,291.35,9999,177
2004,4,11,10,10,2.4,293.25,9999,214
2004,4,11,11,10,2.5,294.05,9999,245
2004,4,11,12,11,2.2,295.25,9999,296
2004,4,11,13,11,3,295.65,9999,272
2004,4,11,14,10,4,294.75,9999,262
2004,4,11,15,11,4.9,294.25,9999,220
2004,4,11,16,10,3.5,293.15,9999,121
2004,4,11,17,11,4.1,292.85,9999,72
2004,4,11,18,11,1.8,291.95,9999,17
2004,4,11,19,10,1.9,291.65,9999,0
2004,4,11,20,3,1.9,289.85,9999,0
2004,4,11,21,4,1.9,288.95,9999,0
2004,4,11,22,3,1.2,288.35,9999,0
2004,4,11,23,3,1,287.05,9999,0
2004,4,11,24,10,1.9,289.05,9999,0
2004,4,12,1,11,1.9,288.75,9999,0
2004,4,12,2,11,1.2,288.75,9999,0
2004,4,12,3,15,1.8,286.65,9999,0
2004,4,12,4,16,1.2,284.85,9999,0
2004,4,12,5,15,2,284.45,9999,0
2004,4,12,6,15,1.4,285.05,9999,8
2004,4,12,7,1,2.3,286.85,9999,56
2004,4,12,8,1,2.2,289.25,9999,125
2004,4,12,9,13,1.4,292.05,9999,190
2004,4,12,10,10,1.5,294.85,9999,247
2004,4,12,11,11,2.3,295.85,9999,286
2004,4,12,12,10,2.3,296.95,9999,307
2004,4,12,13,10,2,297.25,9999,305
2004,4,12,14,10,2.2,297.75,9999,277
2004,4,12,15,11,2.8,296.85,9999,231
2004,4,12,16,10,2.9,295.55,9999,148
2004,4,12,17,10,2.9,294.65,9999,64
2004,4,12,18,10,2.9,293.25,9999,19
2004,4,12,19,10,1.9,292.45,9999,0
2004,4,12,20,11,1.6,291.95,9999,0
2004,4,12,21,10,1.3,291.25,9999,0
2004,4,12,22,11,1.1,290.75,9999,0
2004,4,12,23,12,1,290.25,9999,0
2004,4,12,24,2,2.3,290.05,9999,0
2004,4,13,1,3,6,286.05,9999,0
2004,4,13,2,3,6.1,284.15,9999,0
2004,4,13,3,3,6.7,282.85,9999,0
2004,4,13,4,3,7.3,282.25,9999,0
2004,4,13,5,3,6.4,282.35,9999,0
2004,4,13,6,4,5.3,282.25,9999,7
2004,4,13,7,3,5.3,283.15,9999,51
2004,4,13,8,3,6.2,283.65,9999,90
2004,4,13,9,3,6.4,283.65,9999,84
2004,4,13,10,3,5.4,284.55,9999,92
2004,4,13,11,3,6.2,284.85,9999,102
2004,4,13,12,3,5.6,284.75,9999,94
2004,4,13,13,3,4.1,285.15,9999,69
2004,4,13,14,3,5.3,285.55,9999,83
2004,4,13,15,4,3.8,284.65,9999,43
2004,4,13,16,3,3.8,284.45,9999,-1
2004,4,13,17,4,3.1,284.55,9999,36
2004,4,13,18,3,3.7,283.65,9999,12
2004,4,13,19,4,3.5,283.05,9999,0
2004,4,13,20,2,2.2,282.95,9999,0
2004,4,13,21,2,3.7,282.45,9999,0
2004,4,13,22,2,4.3,282.35,9999,0
2004,4,13,23,1,2.4,282.15,9999,0
2004,4,13,24,2,2.7,281.95,9999,0
2004,4,14,1,1,3.6,281.85,9999,0
2004,4,14,2,1,2,281.75,9999,0
2004,4,14,3,1,1.5,281.95,9999,0
2004,4,14,4,16,1.8,282.05,9999,0
2004,4,14,5,16,2,282.15,9999,0
2004,4,14,6,16,1.6,282.65,9999,5
2004,4,14,7,16,3.1,283.45,9999,44
2004,4,14,8,1,2.3,283.85,9999,53
2004,4,14,9,1,2,285.05,9999,116
2004,4,14,10,3,1.9,286.55,9999,111
2004,4,14,11,6,.8,287.15,9999,108
2004,4,14,12,16,.6,288.65,9999,130
2004,4,14,13,8,.9,289.55,9999,88
2004,4,14,14,2,1.2,289.95,9999,108
2004,4,14,15,16,1.2,289.25,9999,43
2004,4,14,16,16,2.1,288.45,9999,27
2004,4,14,17,1,1.6,287.15,9999,8
2004,4,14,18,16,2.3,286.55,9999,3
2004,4,14,19,1,2.5,285.95,9999,0
2004,4,14,20,1,1.9,285.75,9999,0
2004,4,14,21,1,1.2,285.75,9999,0
2004,4,14,22,15,2.4,285.75,9999,0
2004,4,14,23,1,1.5,285.25,9999,0
2004,4,14,24,16,1.3,285.25,9999,0
2004,4,15,1,16,1.8,284.95,9999,0
2004,4,15,2,15,1.6,284.85,9999,0
2004,4,15,3,16,2.3,284.25,9999,0
2004,4,15,4,16,2.1,283.75,9999,0
2004,4,15,5,2,2,283.05,9999,0
2004,4,15,6,1,1.8,282.05,9999,11
2004,4,15,7,1,2.8,283.55,9999,76
2004,4,15,8,2,2.6,286.65,9999,156
2004,4,15,9,3,2.5,288.95,9999,228
2004,4,15,10,4,3.1,290.75,9999,288
2004,4,15,11,4,3.7,291.35,9999,309
2004,4,15,12,4,3,291.65,9999,270
2004,4,15,13,7,3.6,292.95,9999,273
2004,4,15,14,7,5.2,291.75,9999,241
2004,4,15,15,6,4.5,291.35,9999,222
2004,4,15,16,7,5,290.75,9999,179
2004,4,15,17,7,3.4,290.05,9999,103
2004,4,15,18,7,3.3,288.75,9999,23
2004,4,15,19,7,1.4,287.65,9999,1
2004,4,15,20,7,1,286.35,9999,0
2004,4,15,21,9,1,286.65,9999,0
2004,4,15,22,4,1,286.65,9999,0
2004,4,15,23,4,1.1,286.25,9999,0
2004,4,15,24,4,1.6,285.35,9999,0
2004,4,16,1,4,1,285.15,9999,0
2004,4,16,2,3,.9,285.05,9999,0
2004,4,16,3,3,1.2,284.45,9999,0
2004,4,16,4,5,1.6,284.25,9999,0
2004,4,16,5,5,.8,284.25,9999,0
2004,4,16,6,5,1.1,284.55,9999,5
2004,4,16,7,7,2.4,286.75,9999,41
2004,4,16,8,9,1.8,289.95,9999,90
2004,4,16,9,11,3,292.35,9999,201
2004,4,16,10,11,3.1,293.05,9999,269
2004,4,16,11,11,2.9,292.85,9999,278
2004,4,16,12,11,4.5,293.45,9999,329
2004,4,16,13,11,4.2,293.65,9999,329
2004,4,16,14,10,4.1,294.05,9999,302
2004,4,16,15,11,4.4,293.75,9999,250
2004,4,16,16,11,4.6,293.25,9999,177
2004,4,16,17,10,5.1,292.15,9999,96
2004,4,16,18,10,3.9,291.45,9999,27
2004,4,16,19,9,4.6,290.95,9999,0
2004,4,16,20,9,3.9,290.55,9999,0
2004,4,16,21,10,3.2,290.45,9999,0
2004,4,16,22,10,3.5,290.15,9999,0
2004,4,16,23,10,3.1,289.65,9999,0
2004,4,16,24,10,4,290.25,9999,0
2004,4,17,1,10,3.5,290.05,9999,0
2004,4,17,2,11,3.9,289.95,9999,0
2004,4,17,3,10,3.6,289.55,9999,0
2004,4,17,4,10,2.9,289.25,9999,0
2004,4,17,5,10,2.7,289.45,9999,0
2004,4,17,6,10,3,290.15,9999,12
2004,4,17,7,10,3.3,291.95,9999,63
2004,4,17,8,10,3.5,293.65,9999,131
2004,4,17,9,10,4.4,295.05,9999,194
2004,4,17,10,10,4,295.85,9999,255
2004,4,17,11,10,4.7,296.55,9999,270
2004,4,17,12,10,3.9,297.45,9999,270
2004,4,17,13,10,4.3,297.65,9999,240
2004,4,17,14,10,3,297.95,9999,219
2004,4,17,15,9,3.8,297.65,9999,206
2004,4,17,16,9,2.3,297.55,9999,142
2004,4,17,17,11,1.9,296.75,9999,75
2004,4,17,18,15,.5,295.35,9999,21
2004,4,17,19,2,3.2,295.35,9999,0
2004,4,17,20,4,3.6,292.75,9999,0
2004,4,17,21,4,4.8,290.05,9999,0
2004,4,17,22,4,6,287.65,9999,0
2004,4,17,23,4,4.2,286.35,9999,0
2004,4,17,24,4,3.8,285.75,9999,0
2004,4,18,1,4,2.4,285.05,9999,0
2004,4,18,2,4,1.1,284.35,9999,0
2004,4,18,3,2,1.7,283.95,9999,0
2004,4,18,4,16,1.4,283.05,9999,0
2004,4,18,5,16,2,282.45,9999,0
2004,4,18,6,16,2.6,282.65,9999,16
2004,4,18,7,1,2.9,284.45,9999,80
2004,4,18,8,1,2.3,286.55,9999,153
2004,4,18,9,1,1.3,288.75,9999,223
2004,4,18,10,8,1.3,291.95,9999,276
2004,4,18,11,10,1.6,293.25,9999,311
2004,4,18,12,9,3,294.95,9999,325
2004,4,18,13,9,3.2,295.75,9999,316
2004,4,18,14,11,3.1,294.35,9999,275
2004,4,18,15,11,3.1,293.85,9999,202
2004,4,18,16,10,3.3,293.75,9999,166
2004,4,18,17,11,3.2,292.85,9999,95
2004,4,18,18,9,3,292.45,9999,26
2004,4,18,19,9,3,291.45,9999,0
2004,4,18,20,9,3.2,290.85,9999,0
2004,4,18,21,9,2.6,290.45,9999,0
2004,4,18,22,9,2.3,290.15,9999,0
2004,4,18,23,9,2.1,290.05,9999,0
2004,4,18,24,9,1.7,289.65,9999,0
2004,4,19,1,9,1,288.75,9999,0
2004,4,19,2,9,2.4,289.05,9999,0
2004,4,19,3,9,2,289.05,9999,0
2004,4,19,4,8,2,288.95,9999,0
2004,4,19,5,9,1.7,288.95,9999,0
2004,4,19,6,9,1.8,289.95,9999,7
2004,4,19,7,9,1.9,290.45,9999,18
2004,4,19,8,9,1.6,291.25,9999,38
2004,4,19,9,10,1.9,292.45,9999,51
2004,4,19,10,10,1.9,292.75,9999,49
2004,4,19,11,10,3.3,293.85,9999,72
2004,4,19,12,10,3.4,294.15,9999,81
2004,4,19,13,10,3.9,293.95,9999,50
2004,4,19,14,10,3.2,293.75,9999,34
2004,4,19,15,10,4.7,293.95,9999,52
2004,4,19,16,10,3.7,293.75,9999,37
2004,4,19,17,9,5,293.45,9999,14
2004,4,19,18,10,4.4,292.85,9999,5
2004,4,19,19,9,5,292.85,9999,0
2004,4,19,20,9,4,292.55,9999,0
2004,4,19,21,9,3.6,292.45,9999,0
2004,4,19,22,9,3.2,292.45,9999,0
2004,4,19,23,10,2.1,291.15,9999,0
2004,4,19,24,8,4.4,290.95,9999,0
2004,4,20,1,8,3.1,290.85,9999,0
2004,4,20,2,9,4.6,291.65,9999,0
2004,4,20,3,10,4.8,292.55,9999,0
2004,4,20,4,10,6.6,292.75,9999,0
2004,4,20,5,15,2,288.95,9999,0
2004,4,20,6,2,1.6,288.85,9999,8
2004,4,20,7,15,2.1,289.55,9999,40
2004,4,20,8,15,1.2,290.35,9999,67
2004,4,20,9,14,1,292.25,9999,133
2004,4,20,10,12,2.2,294.75,9999,193
2004,4,20,11,11,3,297.05,9999,310
2004,4,20,12,11,2.9,298.25,9999,323
2004,4,20,13,10,2.6,299.45,9999,317
2004,4,20,14,11,3.2,298.95,9999,275
2004,4,20,15,11,2.7,298.65,9999,237
2004,4,20,16,10,3.2,297.65,9999,165
2004,4,20,17,11,2.3,297.25,9999,85
2004,4,20,18,13,1.8,295.35,9999,24
2004,4,20,19,14,4.8,295.55,9999,1
2004,4,20,20,15,5,293.95,9999,0
2004,4,20,21,15,6.7,292.35,9999,0
2004,4,20,22,15,6.2,291.45,9999,0
2004,4,20,23,15,6.1,290.55,9999,0
2004,4,20,24,15,7,290.15,9999,0
2004,4,21,1,15,7.3,289.75,9999,0
2004,4,21,2,15,6.7,289.55,9999,0
2004,4,21,3,15,4.8,288.95,9999,0
2004,4,21,4,15,3.9,288.85,9999,0
2004,4,21,5,15,4,288.55,9999,0
2004,4,21,6,15,1.3,288.95,9999,25
2004,4,21,7,14,1.9,290.25,9999,66
2004,4,21,8,14,3.9,292.25,9999,120
2004,4,21,9,14,4.5,293.65,9999,215
2004,4,21,10,12,3.5,296.15,9999,247
2004,4,21,11,11,3.4,296.45,9999,321
2004,4,21,12,11,4.9,295.65,9999,335
2004,4,21,13,11,4.7,295.75,9999,327
2004,4,21,14,10,5.3,294.95,9999,294
2004,4,21,15,10,5.4,294.35,9999,241
2004,4,21,16,11,4.5,294.05,9999,172
2004,4,21,17,11,4,294.05,9999,97
2004,4,21,18,10,4.4,293.15,9999,29
2004,4,21,19,10,3.4,292.25,9999,1
2004,4,21,20,10,3.5,291.65,9999,0
2004,4,21,21,10,3.5,291.45,9999,0
2004,4,21,22,9,2.8,291.05,9999,0
2004,4,21,23,9,1.6,290.35,9999,0
2004,4,21,24,6,1.1,289.65,9999,0
2004,4,22,1,5,.7,288.65,9999,0
2004,4,22,2,3,.8,287.95,9999,0
2004,4,22,3,4,1.7,287.75,9999,0
2004,4,22,4,6,1.2,287.45,9999,0
2004,4,22,5,6,.5,286.95,9999,0
2004,4,22,6,8,.5,287.45,9999,12
2004,4,22,7,14,1,289.35,9999,43
2004,4,22,8,13,1.2,291.05,9999,90
2004,4,22,9,10,1.1,293.45,9999,166
2004,4,22,10,11,1.8,296.05,9999,265
2004,4,22,11,10,2.9,296.25,9999,306
2004,4,22,12,10,3.6,297.75,9999,318
2004,4,22,13,10,4.3,299.65,9999,314
2004,4,22,14,10,4.3,299.55,9999,283
2004,4,22,15,10,4.2,298.95,9999,230
2004,4,22,16,9,5.5,297.35,9999,151
2004,4,22,17,9,5.6,296.05,9999,93
2004,4,22,18,10,5.2,295.05,9999,28
2004,4,22,19,10,4.7,294.05,9999,1
2004,4,22,20,10,6.2,293.95,9999,0
2004,4,22,21,10,5.8,293.45,9999,0
2004,4,22,22,10,4.9,293.45,9999,0
2004,4,22,23,10,4.2,293.15,9999,0
2004,4,22,24,10,3.3,292.65,9999,0
2004,4,23,1,10,4.6,292.55,9999,0
2004,4,23,2,10,4.1,292.25,9999,0
2004,4,23,3,10,3.1,292.15,9999,0
2004,4,23,4,10,3.2,291.75,9999,0
2004,4,23,5,10,3.1,291.45,9999,0
2004,4,23,6,10,4.1,291.95,9999,8
2004,4,23,7,10,3.3,292.55,9999,49
2004,4,23,8,10,4.1,293.15,9999,98
2004,4,23,9,11,4.8,294.25,9999,113
2004,4,23,10,10,3.2,293.05,9999,51
2004,4,23,11,10,2.9,295.55,9999,92
2004,4,23,12,10,1.9,295.95,9999,148
2004,4,23,13,4,3.4,292.85,9999,105
2004,4,23,14,4,6.2,290.45,9999,141
2004,4,23,15,4,5.2,289.05,9999,174
2004,4,23,16,4,6.4,288.55,9999,164
2004,4,23,17,3,6.6,286.95,9999,86
2004,4,23,18,3,6.8,285.35,9999,20
2004,4,23,19,3,5.7,285.15,9999,0
2004,4,23,20,2,4.7,284.55,9999,0
2004,4,23,21,2,5.6,284.25,9999,0
2004,4,23,22,3,5.9,284.05,9999,0
2004,4,23,23,3,4,283.75,9999,0
2004,4,23,24,3,4.2,283.45,9999,0
2004,4,24,1,3,4,283.25,9999,0
2004,4,24,2,2,2,283.35,9999,0
2004,4,24,3,16,4,283.85,9999,0
2004,4,24,4,16,3.1,283.55,9999,0
2004,4,24,5,15,3.2,283.55,9999,0
2004,4,24,6,1,2.5,284.15,9999,30
2004,4,24,7,1,3,284.85,9999,97
2004,4,24,8,16,3.3,286.45,9999,175
2004,4,24,9,15,4.5,287.75,9999,249
2004,4,24,10,15,4.2,287.75,9999,221
2004,4,24,11,15,4.6,288.75,9999,284
2004,4,24,12,14,4.4,289.95,9999,347
2004,4,24,13,15,4.3,289.95,9999,338
2004,4,24,14,15,5.1,289.95,9999,219
2004,4,24,15,16,4.3,288.35,9999,50
2004,4,24,16,5,2.1,286.65,9999,15
2004,4,24,17,14,3.6,287.05,9999,15
2004,4,24,18,14,2.2,286.35,9999,4
2004,4,24,19,4,3.2,285.35,9999,1
2004,4,24,20,4,3.7,282.95,9999,0
2004,4,24,21,5,2,282.25,9999,0
2004,4,24,22,5,2.1,281.85,9999,0
2004,4,24,23,10,1.4,280.95,9999,0
2004,4,24,24,14,1.4,280.65,9999,0
2004,4,25,1,14,1.6,280.25,9999,0
2004,4,25,2,14,2.2,280.85,9999,0
2004,4,25,3,15,2.4,280.95,9999,0
2004,4,25,4,15,3.4,280.65,9999,0
2004,4,25,5,15,1.9,280.65,9999,0
2004,4,25,6,15,1.7,281.55,9999,27
2004,4,25,7,14,3.8,283.75,9999,99
2004,4,25,8,14,5.1,285.35,9999,178
2004,4,25,9,14,5.6,286.65,9999,245
2004,4,25,10,15,5.2,287.35,9999,305
2004,4,25,11,15,3.9,288.35,9999,342
2004,4,25,12,14,4.2,289.95,9999,355
2004,4,25,13,9,5.2,290.55,9999,343
2004,4,25,14,10,4.9,290.15,9999,307
2004,4,25,15,10,4.2,290.05,9999,252
2004,4,25,16,11,2.8,289.85,9999,183
2004,4,25,17,10,3.4,289.55,9999,75
2004,4,25,18,10,4,288.25,9999,34
2004,4,25,19,9,4.8,287.45,9999,1
2004,4,25,20,9,4.5,287.25,9999,0
2004,4,25,21,10,5.1,287.85,9999,0
2004,4,25,22,11,5.3,288.05,9999,0
2004,4,25,23,11,2.7,287.75,9999,0
2004,4,25,24,12,2.9,287.45,9999,0
2004,4,26,1,12,2.8,287.35,9999,0
2004,4,26,2,13,1.2,285.75,9999,0
2004,4,26,3,15,1,284.25,9999,0
2004,4,26,4,9,1.2,283.05,9999,0
2004,4,26,5,8,1.5,283.05,9999,0
2004,4,26,6,13,1.1,283.85,9999,13
2004,4,26,7,13,1,288.35,9999,80
2004,4,26,8,1,1.8,290.25,9999,141
2004,4,26,9,1,.7,291.25,9999,216
2004,4,26,10,13,.5,292.35,9999,266
2004,4,26,11,7,2.2,294.95,9999,305
2004,4,26,12,6,1.2,295.05,9999,307
2004,4,26,13,8,2.3,295.65,9999,228
2004,4,26,14,7,5.9,294.35,9999,241
2004,4,26,15,6,5.3,293.45,9999,186
2004,4,26,16,6,5.3,291.75,9999,158
2004,4,26,17,5,4.4,290.55,9999,73
2004,4,26,18,5,3.7,289.85,9999,28
2004,4,26,19,4,2.2,289.35,9999,1
2004,4,26,20,5,1.3,289.05,9999,0
2004,4,26,21,10,.9,288.95,9999,0
2004,4,26,22,9,2.3,290.25,9999,0
2004,4,26,23,10,3.8,289.05,9999,0
2004,4,26,24,10,2.2,289.05,9999,0
2004,4,27,1,10,3.2,289.85,9999,0
2004,4,27,2,9,4,290.15,9999,0
2004,4,27,3,9,5.9,290.15,9999,0
2004,4,27,4,9,5.4,290.05,9999,0
2004,4,27,5,9,5.1,290.15,9999,0
2004,4,27,6,9,5.1,290.35,9999,2
2004,4,27,7,9,4.8,290.75,9999,7
2004,4,27,8,9,3.2,288.75,9999,16
2004,4,27,9,9,3.8,289.05,9999,21
2004,4,27,10,9,3.4,290.25,9999,70
2004,4,27,11,9,4.5,290.75,9999,71
2004,4,27,12,9,5.1,291.25,9999,31
2004,4,27,13,9,4.5,291.75,9999,16
2004,4,27,14,9,7.8,292.65,9999,51
2004,4,27,15,9,7.6,292.75,9999,45
2004,4,27,16,9,8.1,293.45,9999,26
2004,4,27,17,10,8.1,294.35,9999,20
2004,4,27,18,10,7.7,294.65,9999,7
2004,4,27,19,10,8.1,293.45,9999,0
2004,4,27,20,10,7.3,292.65,9999,0
2004,4,27,21,10,7.2,292.05,9999,0
2004,4,27,22,10,4.6,291.75,9999,0
2004,4,27,23,10,6.5,291.95,9999,0
2004,4,27,24,10,5.6,291.65,9999,0
2004,4,28,1,10,5.1,291.15,9999,0
2004,4,28,2,10,5.9,290.85,9999,0
2004,4,28,3,10,5.7,290.65,9999,0
2004,4,28,4,10,5.3,289.95,9999,0
2004,4,28,5,10,6.5,288.85,9999,0
2004,4,28,6,10,5,289.55,9999,26
2004,4,28,7,11,4,290.25,9999,97
2004,4,28,8,11,4.8,290.75,9999,173
2004,4,28,9,10,4,291.35,9999,194
2004,4,28,10,10,4.3,289.35,9999,166
2004,4,28,11,10,3.3,289.85,9999,81
2004,4,28,12,6,3.3,288.65,9999,87
2004,4,28,13,3,4.5,288.65,9999,243
2004,4,28,14,4,4.6,288.45,9999,238
2004,4,28,15,4,4.1,288.05,9999,238
2004,4,28,16,4,3.1,289.65,9999,190
2004,4,28,17,4,2.6,288.95,9999,95
2004,4,28,18,4,2.5,287.55,9999,48
2004,4,28,19,6,2.7,285.75,9999,1
2004,4,28,20,15,2,285.95,9999,0
2004,4,28,21,15,2,286.15,9999,0
2004,4,28,22,1,2.7,284.75,9999,0
2004,4,28,23,4,2.3,283.55,9999,0
2004,4,28,24,5,1.8,283.25,9999,0
2004,4,29,1,8,.9,282.75,9999,0
2004,4,29,2,11,1.2,283.25,9999,0
2004,4,29,3,14,3.1,284.65,9999,0
2004,4,29,4,15,2.8,285.05,9999,0
2004,4,29,5,16,2.9,283.65,9999,0
2004,4,29,6,16,1.9,284.15,9999,21
2004,4,29,7,16,2.9,287.25,9999,104
2004,4,29,8,16,3.7,288.65,9999,184
2004,4,29,9,16,2.9,290.25,9999,257
2004,4,29,10,16,3.6,291.45,9999,310
2004,4,29,11,16,3.3,293.15,9999,347
2004,4,29,12,16,3.1,293.95,9999,359
2004,4,29,13,1,4.5,294.95,9999,348
2004,4,29,14,2,2.5,295.55,9999,313
2004,4,29,15,2,2.7,295.55,9999,259
2004,4,29,16,10,4,293.35,9999,186
2004,4,29,17,8,3.5,292.25,9999,108
2004,4,29,18,7,2.5,290.45,9999,37
2004,4,29,19,7,1.8,288.65,9999,1
2004,4,29,20,8,1.5,288.35,9999,0
2004,4,29,21,8,1.1,286.75,9999,0
2004,4,29,22,7,1.4,285.85,9999,0
2004,4,29,23,7,1.3,285.15,9999,0
2004,4,29,24,7,1.4,284.45,9999,0
2004,4,30,1,9,2,285.35,9999,0